Weather in Saint Roman

Monaco     43°45′02″N   7°26′08″E
temp.,
°C
wind,
m/s
gust,
m/s
humid.,
%
clouds,
%
prec.,
mm/h
press.,
hPa
HPBL,
m
17 june, thu
thu1723:00+23ne228185 0.0 1015105
02:00+23ene1281100 0.0 1016226
05:00+23nne2274100 0.0 101580
08:00+23sw11726 0.0 1016183
11:00+23e668068 0.0 1016319
14:00+23e897715 0.0 1016394
17:00+24e68745 0.0 1015316
20:00+25ene566889 0.0 1014165
18 june, fri
fri1823:00+25ne236780 0.0 101555
02:00+24ne226590 0.0 101578
05:00+23ne23559 0.0 1015117
08:00+24e56600 0.0 1016304
11:00+23e88775 0.0 1016418
14:00+23e7780100 0.0 1017351
17:00+23e448172 0.0 1016302
20:00+23e228029 0.0 1015215
19 june, sat
sat1923:00+23ese11816 0.0 1017288
02:00+23wnw127353 0.0 1017149
05:00+23n116682 0.0 1016126
08:00+23se2169100 0.0 1016211
11:00+22ese2278100 0.0 1016259
14:00+23ene44837 0.0 1016290
17:00+23ese448697 0.0 1014272
20:00+23ne128098 0.0 1014173
20 june, sun
sun2023:00+24nne1179100 0.0 101441
02:00+23ne3381100 0.0 1013203
05:00+23ese3381100 0.0 1013294
08:00+23e2281100 0.0 1013240
11:00+23sse11793 0.0 1012174
14:00+22ese228353 0.0 1012198
17:00+22sse118090 0.0 1011262
20:00+24ssw11757 0.0 1010217
21 june, mon
mon2123:00+23n007916 0.0 101096
02:00+23nw22725 0.0 1009180
05:00+23nw33666 0.0 1009193
08:00+23wsw11585 0.0 1009208
11:00+23w12675 0.0 1009181
14:00+24ssw54720 0.0 1010451
17:00+24sw44700 0.0 1010382
20:00+24sw56730 0.0 1009372